Station PILL1 - 8760721 - Pilottown, LA Image indicating link to RSS feed of recent meteorological observations for station PILL1


Conditions at PILL1 as of
(2:00 am CDT)
0700 GMT on 06/23/2024:
     

Click on the graph icon in the table below to see a time series plot of the last five days of that observation.

5-day plot - Wind Direction Wind Direction (WDIR): S ( 170 deg true )
5-day plot - Wind Speed Wind Speed (WSPD): 1.9 kts
5-day plot - Wind Gust Wind Gust (GST): 4.1 kts
5-day plot - Atmospheric Pressure Atmospheric Pressure (PRES):29.99 in
5-day plot - Pressure Tendency Pressure Tendency (PTDY):-0.05 in ( Falling )
5-day plot - Air Temperature Air Temperature (ATMP): 78.8 °F
5-day plot - Water Temperature Water Temperature (WTMP): 81.1 °F
5-day plot - Wind Speed at 10 Meters Wind Speed at 10 meters (WSPD10M): 1.9 kts
5-day plot - Wind Speed at 20 Meters Wind Speed at 20 meters (WSPD20M): 1.9 kts
5-day plot -  Wind Speed, Wind Gust and Atmospheric Pressure Combined plot of Wind Speed, Gust, and Air Pressure
NOS Water Level Observation Network Water Level
Previous observations
TIME
(CDT)
5-day plot - Wind Direction
WDIR
 
5-day plot - Wind Speed
WSPD
kts
5-day plot - Wind Gust
GST
kts
5-day plot - Wave Height
WVHT
ft
5-day plot - Dominant Wave Period
DPD
sec
5-day plot - Average Wave Period
APD
sec
5-day plot - Mean Wave Direction
MWD
 
5-day plot - Atmospheric Pressure
PRES
in
5-day plot - Pressure Tendency
PTDY
in
5-day plot - Air Temperature
ATMP
°F
5-day plot - Water Temperature
WTMP
°F
5-day plot - Dew Point
DEWP
°F
5-day plot - Salinity
SAL
psu
5-day plot - Visibility
VIS
nmi
5-day plot - Tide (above MLLW)
TIDE
ft
2024-06-23 01:54 am S 1.9 2.9----29.99- 79.0 81.1----
2024-06-23 01:48 am S 2.9 4.1----29.99- 79.0 81.1----
2024-06-23 01:42 am S 1.9 4.1----30.00- 79.0 81.1----
2024-06-23 01:36 amSSW 1.9 4.1----30.00- 78.8 81.1----
2024-06-23 01:30 am S 1.0 1.9----30.01- 78.8 81.1----
2024-06-23 01:24 am S 1.0 2.9----30.01- 78.8 81.1----
2024-06-23 01:18 am S 2.9 2.9----30.01- 79.0 81.1----
2024-06-23 01:12 am S 2.9 2.9----30.01- 79.0 81.1----
2024-06-23 01:06 am S 2.9 4.1----30.01- 78.8 81.1----
2024-06-23 01:00 am--------- 78.8 81.1----
2024-06-23 12:54 am--------- 78.8 81.1----
2024-06-23 12:48 am S 1.9 1.9----30.01- 79.0 81.1----
2024-06-23 12:42 am S 1.9 1.9----30.02- 78.8 81.1----
2024-06-23 12:36 am S 1.9 2.9----30.02- 79.0 81.1----
2024-06-23 12:30 am-------30.02-- 81.1----
2024-06-23 12:24 am-------30.02-- 81.1----
2024-06-23 12:18 am SE 1.9 2.9----30.02- 79.2 81.1----
2024-06-23 12:12 amSSE 2.9 2.9----30.02- 79.0 81.1----
2024-06-23 12:06 amSSE 2.9 2.9----30.02- 79.2 81.1----
2024-06-23 12:00 amSSE 2.9 4.1----30.03+0.01 79.2 81.1----
2024-06-22 11:54 pm S 1.9 2.9----30.03- 79.2 81.1----
2024-06-22 11:48 pmSSE 1.9 1.9----30.03- 79.3 81.1----
2024-06-22 11:42 pm SE 1.9 2.9----30.03- 79.3 81.1----
2024-06-22 11:36 pmSSE 1.9 1.9----30.03- 79.5 81.3----
2024-06-22 11:30 pmSSE 1.9 1.9----30.03- 79.5 81.3----
2024-06-22 11:24 pmESE 1.0 1.9----30.03- 79.5 81.3----
2024-06-22 11:18 pm SE 1.9 1.9----30.03-- 81.3----
2024-06-22 11:12 pm- 0.0 1.0----30.03-- 81.3----
2024-06-22 11:06 pm- 0.0 1.0----30.03-- 81.3----
2024-06-22 11:00 pm- 0.0 1.9----30.03+0.03 79.5 81.3----
2024-06-22 10:54 pm SE 1.0 1.9----30.03- 79.5 81.3----
2024-06-22 10:48 pmESE 1.0 1.9----30.03- 79.5 81.3----
2024-06-22 10:42 pmSSE 1.9 2.9----30.03- 79.7 81.3----
2024-06-22 10:36 pm SE 1.0 2.9----30.03- 79.9 81.3----
2024-06-22 10:30 pm SE 1.9 2.9----30.03- 79.9 81.3----
2024-06-22 10:24 pm- 0.0 1.9----30.03- 79.9 81.3----
2024-06-22 10:18 pmESE 1.9 1.9----30.03- 79.9 81.3----
2024-06-22 10:12 pm E 1.0 1.9----30.03- 79.9 81.3----
2024-06-22 10:06 pm- 0.0 1.9----30.03- 79.9 81.3----
2024-06-22 10:00 pm-------30.03+0.02- 81.3----
2024-06-22 09:54 pm-------30.03-- 81.3----
2024-06-22 09:48 pm-------30.02-- 81.3----
2024-06-22 09:42 pm-------30.02-- 81.3----
2024-06-22 09:36 pm-------30.02-- 81.3----
2024-06-22 09:30 pmSSE 2.9 2.9----30.02- 79.7 81.3----
2024-06-22 09:24 pmSSE 2.9 4.1----30.02- 79.7 81.3----
2024-06-22 09:18 pmSSE 2.9 2.9----30.02- 79.7 81.3----
2024-06-22 09:12 pmSSE 2.9 2.9----30.02- 79.7 81.3----
2024-06-22 09:06 pmSSE 2.9 4.1----30.02- 79.9 81.3----
2024-06-22 09:00 pm S 2.9 4.1----30.01+0.01- 81.3----
2024-06-22 08:54 pmSSE 2.9 4.1----30.01-- 81.3----
2024-06-22 08:48 pmSSE 2.9 4.1----30.01- 79.9 81.3----
2024-06-22 08:42 pmSSE 2.9 2.9----30.01- 80.1 81.3----
2024-06-22 08:36 pmSSE 2.9 4.1----30.01- 80.1 81.3----
2024-06-22 08:30 pmSSE 1.9 2.9----30.01-------
2024-06-22 08:24 pmSSE 2.9 2.9----30.00-------
2024-06-22 08:18 pmSSE 1.9 4.1----30.00- 80.6 81.3----
2024-06-22 08:12 pmSSE 1.9 2.9----30.00- 80.6 81.3----
2024-06-22 08:06 pmSSE 1.9 2.9----30.01- 80.6 81.3----
2024-06-22 08:00 pmSSE 2.9 4.1----30.01+0.00 80.8 81.3----
2024-06-22 07:54 pmSSE 2.9 4.1----30.00- 81.0 81.5----
2024-06-22 07:48 pmSSE 2.9 5.1----30.01- 81.1 81.5----
2024-06-22 07:42 pm S 4.1 5.1----30.01- 81.3 81.5----
2024-06-22 07:36 pm S 4.1 6.0----30.01- 81.7 81.5----
2024-06-22 07:30 pm S 4.1 7.0----30.01- 82.0 81.5----
2024-06-22 07:24 pm S 6.0 8.0----30.01- 82.4 81.5----
2024-06-22 07:18 pm S 6.0 8.9----30.01- 82.8 81.5----
2024-06-22 07:12 pmSSE 5.1 7.0----30.01- 82.9 81.5----
2024-06-22 07:06 pm S 5.1 8.0----30.01- 83.1 81.5----
2024-06-22 07:00 pmSSE 4.1 7.0----30.01-0.01 83.8 81.5----
2024-06-22 06:54 pm S 6.0 7.0----30.00- 83.5 81.5----
2024-06-22 06:48 pmSSE 6.0 8.0------- 81.5----
2024-06-22 06:42 pm S 7.0 8.9------- 81.5----
2024-06-22 06:36 pmSSE 6.0 8.9------- 81.5----
2024-06-22 06:30 pmSSE 6.0 8.9----30.00- 83.1 81.5----
2024-06-22 06:24 pmSSE 7.0 8.9----30.00- 83.5 81.5----
2024-06-22 06:18 pmSSE 5.1 8.9----30.00- 83.5 81.5----
2024-06-22 06:12 pmSSE 5.1 8.0----30.00- 83.7 81.5----
2024-06-22 06:06 pm S 5.1 8.9----30.00- 83.7 81.5----
2024-06-22 06:00 pm S 7.0 9.9----30.00-0.04- 81.5----
2024-06-22 05:54 pmSSE 7.0 9.9----30.00-- 81.5----
2024-06-22 05:48 pm SE 8.0 11.1----30.00- 83.5 81.5----
2024-06-22 05:42 pmSSE 7.0 9.9----30.00- 83.7 81.5----
2024-06-22 05:36 pmSSE 8.0 11.1----30.00- 83.1 81.5----
2024-06-22 05:30 pmSSE 8.0 9.9----30.00- 83.3 81.5----
2024-06-22 05:24 pmSSE 7.0 9.9----30.00- 83.8 81.5----
2024-06-22 05:18 pmSSE 7.0 8.9----30.00- 83.8 81.5----
2024-06-22 05:12 pmSSE 6.0 9.9----30.00- 83.5 81.5----
2024-06-22 05:06 pmSSE 7.0 9.9----30.00- 83.3 81.5----
2024-06-22 05:00 pmSSE 8.0 9.9----30.00-0.05 83.5 81.5----
2024-06-22 04:54 pmSSE 6.0 9.9----30.00- 83.5 81.5----
2024-06-22 04:48 pm S 8.0 11.1----30.01- 83.7 81.5----
2024-06-22 04:42 pm SE 7.0 11.1----30.00- 83.5 81.5----
2024-06-22 04:36 pmSSE 7.0 11.1----30.01- 83.8 81.5----
2024-06-22 04:30 pm SE 5.1 11.1----30.01-- 81.5----
2024-06-22 04:24 pm SE 7.0 9.9----30.01-- 81.5----
2024-06-22 04:18 pmESE 6.0 9.9----30.01- 83.7 81.3----
2024-06-22 04:12 pmESE 6.0 8.9----30.01- 84.0 81.3----
2024-06-22 04:06 pm E 6.0 11.1----30.01- 84.2 81.3----
2024-06-22 04:00 pm SE 5.1 8.9----30.02-0.04 84.0 81.3----
2024-06-22 03:54 pmESE 5.1 11.1----30.02- 84.2 81.3----
2024-06-22 03:48 pm SE 7.0 9.9----30.02-- 81.3----
2024-06-22 03:42 pm SE 4.1 8.9----30.02-- 81.3----
2024-06-22 03:36 pm SE 5.1 8.9----30.02-- 81.3----
2024-06-22 03:30 pm--------- 83.8 81.3----
2024-06-22 03:24 pm--------- 84.6 81.3----
2024-06-22 03:18 pmESE 7.0 11.1----30.03-- 81.3----
2024-06-22 03:12 pm SE 6.0 8.9----30.03-- 81.3----
2024-06-22 03:06 pmESE 5.1 8.9----30.03-- 81.3----
2024-06-22 03:00 pm SE 7.0 11.1----30.03-0.04 83.3 81.3----
2024-06-22 02:54 pmESE 5.1 9.9----30.03- 83.8 81.1----
2024-06-22 02:48 pmESE 5.1 9.9----30.03- 83.7 81.1----
2024-06-22 02:42 pmESE 5.1 8.9----30.04- 83.5 81.1----
2024-06-22 02:36 pmESE 7.0 9.9----30.04- 83.7 81.1----
2024-06-22 02:30 pmESE 5.1 8.9----30.04- 83.7 81.1----
2024-06-22 02:24 pmESE 6.0 9.9----30.05- 83.7 81.1----
2024-06-22 02:18 pmESE 7.0 9.9----30.05- 83.5 81.1----
2024-06-22 02:12 pmESE 5.1 8.0----30.05- 82.9 81.1----
2024-06-22 02:06 pmESE 5.1 12.0----30.05- 83.1 81.1----
2024-06-22 02:00 pm E 6.0 12.0----30.05-0.03 83.3 81.1----
2024-06-22 01:54 pm SE 5.1 9.9----30.05- 83.1 81.1----
2024-06-22 01:48 pmESE 5.1 8.0----30.06- 83.7 81.1----
2024-06-22 01:42 pm E 7.0 9.9----30.06- 83.3 81.1----
2024-06-22 01:36 pm E 6.0 11.1----30.06- 83.5 81.1----
2024-06-22 01:30 pm E 7.0 11.1----30.06- 82.9 81.1----
2024-06-22 01:24 pm E 5.1 9.9----30.06- 83.3 81.1----
2024-06-22 01:18 pm E 8.0 11.1----30.06- 82.6-----
2024-06-22 01:12 pm E 7.0 9.9----30.06- 82.4-----
2024-06-22 01:06 pm E 5.1 11.1----30.06- 83.1-----
2024-06-22 01:00 pm E 7.0 9.9----30.06-0.02 82.6 81.0----
2024-06-22 12:54 pm E 7.0 11.1----30.06- 82.8 81.0----
2024-06-22 12:48 pm E 7.0 11.1----30.06- 82.6 81.0----
2024-06-22 12:42 pm E 6.0 9.9----30.06- 82.6 81.0----
2024-06-22 12:36 pm E 6.0 8.9----30.06- 82.8 81.0----
2024-06-22 12:30 pm E 6.0 8.9----30.07- 82.6 81.0----
2024-06-22 12:24 pm E 5.1 9.9----30.07- 82.8 81.0----
2024-06-22 12:18 pmESE 6.0 8.9----30.07- 82.8 81.0----
2024-06-22 12:12 pm E 6.0 11.1----30.07- 82.8 81.0----
2024-06-22 12:06 pmESE 5.1 8.9----30.07- 82.9 81.0----
2024-06-22 12:00 pmESE 6.0 8.9----30.07-0.01 82.9 81.0----
2024-06-22 11:54 amESE 6.0 11.1----30.07- 82.8 81.0----
2024-06-22 11:48 amESE 6.0 11.1----30.07- 82.9 81.0----
2024-06-22 11:42 am E 6.0 8.9----30.07- 82.8 81.0----
2024-06-22 11:36 am E 6.0 8.9----30.07- 82.8 81.0----
2024-06-22 11:30 amESE 6.0 8.9----30.08- 82.6 81.0----
2024-06-22 11:24 amESE 5.1 9.9----30.08- 82.9 81.0----
2024-06-22 11:18 am E 8.0 12.0----30.08- 82.6 81.0----
2024-06-22 11:12 am E 6.0 12.0----30.08- 82.8 81.0----
2024-06-22 11:06 am E 7.0 11.1----30.08- 82.9 81.0----
2024-06-22 11:00 am E 6.0 8.0----30.08+0.00 82.6 81.0----
2024-06-22 10:54 am E 8.0 9.9----30.09- 82.0 81.0----
2024-06-22 10:48 amENE 7.0 11.1----30.09-- 81.0----
2024-06-22 10:42 am E 7.0 9.9----30.09-- 81.0----
2024-06-22 10:36 am E 5.1 8.9----30.08-- 81.0----
2024-06-22 10:30 am E 7.0 8.9----30.08- 82.8 81.0----
2024-06-22 10:24 am E 6.0 9.9----30.08- 82.8 81.0----
2024-06-22 10:18 am E 6.0 8.0----30.08- 82.9 80.8----
2024-06-22 10:12 am E 5.1 8.0----30.08- 82.9 80.8----
2024-06-22 10:06 am E 5.1 8.0----30.08- 82.6 80.8----
2024-06-22 10:00 am E 5.1 8.0----30.08+0.00 83.1 80.8----
2024-06-22 09:54 am E 5.1 7.0----30.08- 83.3 80.8----
2024-06-22 09:48 am E 5.1 8.0----30.08- 83.3 80.8----
2024-06-22 09:42 am E 5.1 8.0----30.08- 83.5 80.8----
2024-06-22 09:36 am E 5.1 7.0----30.08- 82.9 80.8----
2024-06-22 09:30 am E 7.0 8.9----30.08- 82.6 80.8----
2024-06-22 09:24 am E 5.1 7.0----30.08- 82.2 80.8----
2024-06-22 09:18 am--------- 82.8 80.8----
2024-06-22 09:12 am--------- 82.6 80.8----
2024-06-22 09:06 am--------- 83.1 80.8----
2024-06-22 09:00 amENE 2.9 6.0----30.09+0.02- 80.8----
2024-06-22 08:54 amENE 6.0 7.0----30.09-- 80.8----
2024-06-22 08:48 amENE 5.1 6.0----30.09- 82.2 80.8----
2024-06-22 08:42 amESE 1.9 5.1----30.09- 83.3 80.8----
2024-06-22 08:36 am SE 2.9 5.1----30.09- 82.8 80.8----
2024-06-22 08:30 am SE 1.0 5.1----30.09- 83.1 80.8----
2024-06-22 08:24 am E 2.9 4.1----30.09- 83.1 80.8----
2024-06-22 08:18 amESE 2.9 5.1----30.09- 82.6 80.8----
2024-06-22 08:12 am SE 4.1 5.1----30.09- 81.9 80.8----
2024-06-22 08:06 am SE 2.9 5.1----30.09- 82.2 80.8----
2024-06-22 08:00 am SE 2.9 4.1----30.09+0.03 82.0-----
2024-06-22 07:54 amESE 1.9 2.9----30.09- 82.2-----
2024-06-22 07:48 amESE 2.9 4.1----30.09-------
2024-06-22 07:42 amESE 1.9 2.9----30.09-------
2024-06-22 07:36 amESE 1.9 1.9----30.09-------
2024-06-22 07:30 amESE 1.0 1.9------- 80.8----
2024-06-22 07:24 am- 0.0 1.0------- 80.6----
2024-06-22 07:18 am- 0.0 1.0----30.09- 79.3 80.6----
2024-06-22 07:12 am- 0.0 1.0----30.09- 79.0 80.6----
2024-06-22 07:06 amENE 1.0 1.9----30.08- 78.8 80.6----
2024-06-22 07:00 am-------30.08+0.03- 80.6----
2024-06-22 06:54 am-------30.08-- 80.6----
2024-06-22 06:48 amENE 1.0 1.9----30.08- 77.7 80.6----
2024-06-22 06:42 am E 1.9 1.9----30.07- 77.4 80.6----
2024-06-22 06:36 am E 1.9 1.9----30.07- 77.0 80.6----
2024-06-22 06:30 amENE 1.9 1.9----30.07- 77.0 80.6----
2024-06-22 06:24 am E 1.9 1.9----30.07- 77.2 80.6----
2024-06-22 06:18 am E 1.0 1.9----30.07-- 80.6----
2024-06-22 06:12 am E 1.0 1.9----30.06-- 80.6----
2024-06-22 06:06 amESE 1.0 1.9----30.06-- 80.6----
2024-06-22 06:00 am E 1.0 1.9----30.06- 76.8 80.6----
2024-06-22 05:54 am E 1.0 1.9----30.06- 77.0 80.6----
2024-06-22 05:48 am E 1.0 1.9----30.06- 77.0 80.6----
2024-06-22 05:42 am E 1.9 1.9----30.06- 77.0 80.6----
2024-06-22 05:36 am E 1.0 1.9----30.06- 77.0 80.6----
2024-06-22 05:30 am E 1.0 1.9----30.06- 77.0-----
2024-06-22 05:24 am- 0.0 2.9----30.06- 77.2-----
2024-06-22 05:18 am- 0.0 1.9----30.06- 77.2 80.6----
2024-06-22 05:12 am- 0.0 1.0----30.06- 77.2 80.6----
2024-06-22 05:06 am E 1.0 1.9----30.06- 77.2 80.6----
2024-06-22 05:00 am E 1.0 1.9----30.06+0.00 77.2 80.6----
2024-06-22 04:54 am E 1.9 1.9----30.06- 77.2 80.6----
2024-06-22 04:48 am E 1.0 1.9----30.06-- 80.6----
2024-06-22 04:42 amESE 1.0 1.9----30.06-- 80.6----
2024-06-22 04:36 amESE 1.9 2.9----30.06-- 80.6----
2024-06-22 04:30 amESE 1.9 1.9----30.06- 77.0 80.6----
2024-06-22 04:24 amESE 1.9 2.9----30.06- 77.0 80.6----
2024-06-22 04:18 amESE 1.0 2.9----30.06- 76.8 80.6----
2024-06-22 04:12 am E 1.0 2.9----30.05- 77.0 80.6----
2024-06-22 04:06 amESE 1.9 2.9----30.05- 76.8 80.8----
2024-06-22 04:00 amESE 1.9 4.1----30.05-0.03 76.8 80.8----
2024-06-22 03:54 amESE 1.9 2.9----30.05- 76.8 80.6----
2024-06-22 03:48 amESE 2.9 4.1----30.05- 76.8 80.6----
2024-06-22 03:42 amESE 1.9 2.9----30.05- 76.8 80.8----
2024-06-22 03:36 am SE 1.9 4.1----30.05- 76.8 80.8----
2024-06-22 03:30 am SE 1.9 2.9----30.05-- 80.8----
2024-06-22 03:24 amESE 1.9 2.9----30.05-- 80.8----
2024-06-22 03:18 amESE 1.9 4.1----30.05-- 80.6----
2024-06-22 03:12 amESE 1.9 4.1----30.05-- 80.8----
2024-06-22 03:06 amESE 1.9 2.9----30.05-- 80.8----
2024-06-22 03:00 amESE 1.9 4.1------- 80.8----
2024-06-22 02:54 am SE 2.9 4.1------- 80.8----
2024-06-22 02:48 am SE 2.9 4.1----30.06- 76.8 80.8----
2024-06-22 02:42 am SE 1.9 4.1----30.06- 76.8 80.8----
2024-06-22 02:36 amESE 1.9 2.9----30.06- 76.8 80.8----
2024-06-22 02:30 amESE 1.9 2.9----30.06- 77.0 80.8----
2024-06-22 02:24 amESE 1.9 2.9----30.06- 77.0 80.8----
2024-06-22 02:18 amESE 1.9 2.9----30.06- 77.0 80.8----
2024-06-22 02:12 am SE 1.9 2.9----30.06- 77.0 80.8----
2024-06-22 02:06 amESE 2.9 4.1----30.06- 76.8 80.8----
2024-06-22 02:00 amESE 2.9 2.9----30.06-0.03 76.6 80.8----
2024-06-22 01:54 am SE 1.9 2.9----30.06- 76.8 80.8----